Weather in Loreto

Mexico     22°16′14″N   101°59′09″W
temp.,
°C
wind,
m/s
gust,
m/s
humid.,
%
clouds,
%
prec.,
mm/h
press.,
hPa
HPBL,
m
7 may, fri
fri701:00+16e814665 0.0 1019522
04:00+14ese37785 0.0 1019332
07:00+13e248113 0.0 102185
10:00+18e455212 0.0 1020893
13:00+24e44285 0.0 10162236
16:00+27ene642268 0.0 10123295
19:00+25e852589 0.0 10112591
22:00+18ese1114558 0.0 1015558
8 may, sat
sat801:00+16e6106481 0.0 1016341
04:00+17se345962 0.0 1016345
07:00+14e226835 0.0 101746
10:00+20s224574 0.0 1016667
13:00+26sw332924 0.0 10122543
16:00+28ssw221959 0.0 10083656
19:00+24nw983157 0.0 1009722
22:00+21ese2339100 0.2 1011133
9 may, sun
sun901:00+22sse344083 0.2 1013453
04:00+20ssw574755 0.0 1012482
07:00+17ssw4554100 0.0 1014109
10:00+21wsw3340100 0.0 1014904
13:00+26n2127100 0.0 10112428
16:00+28n1220100 0.0 10073091
19:00+26wnw762455 0.0 10071376
22:00+24ne6729100 0.1 1009673
10 may, mon
mon1001:00+20sse5850100 0.1 1013608
04:00+19s6758100 0.3 1012764
07:00+17se586795 1.8 1015572
10:00+20sw3454100 0.0 1013705
13:00+24sw3339100 0.0 10112125
16:00+22ene5445100 0.4 1009839
19:00+16ene2282100 9.8 1013151
22:00+16ne1281100 5.6 1016230
11 may, tue
tue1101:00+16se3477100 6.8 1015230
04:00+17sse2370100 0.5 1014301
07:00+17sw3567100 1.5 1015363
10:00+18ese1156100 0.1 1016409
13:00+18ssw4454100 0.1 1016390
16:00+19ssw2251100 0.0 1014373
19:00+20ene1146100 0.0 1012221
22:00+17wnw2258100 0.0 101414